Location: Street
(51.1247°N, 2.7429°W)
Time: 14:35:41
(UTC+00:00)

SR - Pass Details

Date: 05 December 2020
Orbit: 575 x 880 km, 66.7° (Epoch: 25 January)

Event Time Altitude Azimuth Distance (km) Brightness Sun altitude
Rises 21:25:56 0° 307° (NW) 3,021 ? -48.5°
Enters shadow 21:26:31 - 310° (NW) 2,849 ? -48.5°
Reaches altitude 10° 21:29:23 10° 334° (NNW) 2,176 - -48.9°
Maximum altitude 21:31:54 14° 4° (N) 1,979 - -49.3°
Drops below altitude 10° 21:34:31 10° 35° (NE) 2,281 - -49.6°
Sets 21:38:18 0° 61° (ENE) 3,282 - -50.1°
